Weather History for KIAG - October, 2012

Change the Weather History Date:

Wednesday, October 3, 2012

  Actual Average Record
Temperature  
Mean Temperature 64 °F -  
Max Temperature 70 °F 62 °F 80 °F (2005)
Min Temperature 60 °F 43 °F 30 °F (2003)
Growing Degree Days 14 (Base 50)    
Moisture  
Dew Point 60 °F    
Average Humidity 88    
Maximum Humidity 97    
Minimum Humidity 73    
Precipitation  
Precipitation 0.01 in - - ()
Sea Level Pressure  
Sea Level Pressure 30.00 in    
Wind  
Wind Speed 6 mph (SE)    
Max Wind Speed 14 mph    
Max Gust Speed 18 mph    
Visibility 6 miles    
Events      
Averages and records for this station are not official NWS values.
T = Trace of Precipitation, MM = Missing Value Source: NWS Daily Summary

Daily Weather History Graph

Daily Weather History Graph

Search for Another Location

Airport or City:

Trip Planner

Search our weather history database for the weather conditions in past years. The results will help you decide how hot, cold, wet, or windy it might be!

Date:

Astronomy

Oct. 03, 2012 Rise Set
Actual Time 7:15 AM EDT 6:52 PM EDT
Civil Twilight 6:47 AM EDT 7:20 PM EDT
Nautical Twilight 6:14 AM EDT 7:53 PM EDT
Astronomical Twilight 5:41 AM EDT 8:26 PM EDT
Moon 8:37 PM EDT (10/3) 10:43 AM EDT (10/3)
Length of Visible Light 12h 33m
Length of Day
11h 36m
Waning Gibbous, 89% of the Moon is Illuminated
Oct 3
Waning Gibbous
Oct 8
Last Quarter
Oct 15
New
Oct 21
First Quarter
Oct 29
Full

Hourly Weather History & Observations

Time (EDT) Temp. Dew Point Humidity Pressure Visibility Wind Dir Wind Speed Gust Speed Precip Events Conditions
12:04 AM 60.8 °F 59.0 °F 94% 29.93 in 6.0 mi East 8.1 mph - N/A   Overcast
12:53 AM 61.0 °F 59.0 °F 93% 29.93 in 5.0 mi East 8.1 mph - N/A   Overcast
1:12 AM 60.8 °F 59.0 °F 94% 29.92 in 4.0 mi ESE 8.1 mph - N/A   Overcast
1:53 AM 61.0 °F 59.0 °F 93% 29.93 in 3.0 mi East 5.8 mph - N/A   Overcast
2:29 AM 60.8 °F 59.0 °F 94% 29.93 in 3.0 mi ESE 4.6 mph - N/A   Overcast
2:53 AM 61.0 °F 59.0 °F 93% 29.93 in 3.0 mi ENE 3.5 mph - N/A   Overcast
3:32 AM 60.8 °F 57.2 °F 88% 29.92 in 2.5 mi NE 3.5 mph - N/A   Mostly Cloudy
3:53 AM 60.1 °F 57.9 °F 93% 29.93 in 2.5 mi NE 3.5 mph - N/A   Overcast
4:45 AM 60.8 °F 59.0 °F 94% 29.94 in 1.2 mi NNE 4.6 mph - 0.01 in   Overcast
4:48 AM 60.8 °F 59.0 °F 94% 29.94 in 1.0 mi NNE 4.6 mph - 0.01 in   Overcast
4:53 AM 60.1 °F 59.0 °F 96% 29.95 in 1.0 mi NNE 4.6 mph - 0.01 in   Overcast
5:09 AM 60.8 °F 59.0 °F 94% 29.95 in 1.2 mi NNE 5.8 mph - N/A   Overcast
5:18 AM 60.8 °F 59.0 °F 94% 29.95 in 1.5 mi NE 4.6 mph - N/A   Overcast
5:53 AM 61.0 °F 59.0 °F 93% 29.97 in 1.5 mi ENE 3.5 mph - N/A   Overcast
6:22 AM 60.8 °F 59.0 °F 94% 29.96 in 2.0 mi ENE 5.8 mph - N/A   Overcast
6:50 AM 60.8 °F 59.0 °F 94% 29.97 in 2.5 mi East 3.5 mph - N/A   Overcast
6:53 AM 61.0 °F 59.0 °F 93% 29.98 in 2.5 mi East 3.5 mph - N/A   Overcast
7:00 AM 60.8 °F 59.0 °F 94% 29.98 in 1.8 mi NE 3.5 mph - N/A   Overcast
7:26 AM 60.8 °F 59.0 °F 94% 29.98 in 2.0 mi ENE 4.6 mph - N/A   Overcast
7:53 AM 61.0 °F 60.1 °F 97% 29.97 in 2.0 mi ENE 6.9 mph - N/A   Overcast
8:15 AM 62.6 °F 60.8 °F 94% 29.99 in 2.0 mi SSE 3.5 mph - N/A   Overcast
8:53 AM 62.1 °F 60.1 °F 93% 30.00 in 2.0 mi East 3.5 mph - N/A   Overcast
9:09 AM 62.6 °F 60.8 °F 94% 30.00 in 2.5 mi ESE 4.6 mph - N/A   Overcast
9:38 AM 62.6 °F 60.8 °F 94% 30.01 in 4.0 mi SE 4.6 mph - N/A   Overcast
9:53 AM 64.0 °F 61.0 °F 90% 30.01 in 5.0 mi SE 5.8 mph - N/A   Overcast
10:41 AM 66.2 °F 60.8 °F 83% 30.02 in 5.0 mi Calm Calm - N/A   Haze
10:53 AM 66.9 °F 62.1 °F 84% 30.01 in 6.0 mi ENE 4.6 mph - N/A   Haze
11:17 AM 66.2 °F 62.6 °F 88% 30.02 in 8.0 mi Calm Calm - N/A   Overcast
11:53 AM 66.9 °F 62.1 °F 84% 30.02 in 7.0 mi South 5.8 mph - N/A   Overcast
12:24 PM 68.0 °F 62.6 °F 83% 30.02 in 7.0 mi South 5.8 mph - N/A   Overcast
12:38 PM 68.0 °F 62.6 °F 83% 30.02 in 7.0 mi SSW 6.9 mph - 0.00 in   Light Drizzle
12:53 PM 68.0 °F 63.0 °F 84% 30.02 in 5.0 mi SW 8.1 mph - 0.00 in   Light Drizzle
1:10 PM 68.0 °F 62.6 °F 83% 30.02 in 6.0 mi SW 11.5 mph - 0.00 in   Light Drizzle
1:21 PM 66.2 °F 64.4 °F 94% 30.02 in 2.5 mi SW 12.7 mph - 0.00 in   Light Drizzle
1:33 PM 66.2 °F 64.4 °F 94% 30.02 in 6.0 mi SW 13.8 mph 18.4 mph 0.00 in   Light Drizzle
1:46 PM 66.2 °F 64.4 °F 94% 30.02 in 7.0 mi SW 10.4 mph - 0.00 in   Overcast
1:53 PM 66.9 °F 63.0 °F 87% 30.02 in 7.0 mi SW 9.2 mph - 0.00 in   Overcast
2:23 PM 68.0 °F 62.6 °F 83% 30.02 in 10.0 mi SW 11.5 mph - N/A   Overcast
2:40 PM 69.8 °F 62.6 °F 78% 30.02 in 10.0 mi SW 10.4 mph - N/A   Overcast
2:53 PM 69.1 °F 63.0 °F 81% 30.02 in 10.0 mi SW 12.7 mph - N/A   Mostly Cloudy
3:36 PM 69.8 °F 62.6 °F 78% 30.04 in 10.0 mi SW 10.4 mph - N/A   Overcast
3:53 PM 69.1 °F 62.1 °F 78% 30.05 in 10.0 mi SW 13.8 mph - N/A   Overcast
4:13 PM 69.8 °F 62.6 °F 78% 30.04 in 10.0 mi SSW 10.4 mph - N/A   Mostly Cloudy
4:53 PM 69.1 °F 60.1 °F 73% 30.04 in 10.0 mi SW 8.1 mph - N/A   Mostly Cloudy
5:53 PM 69.1 °F 60.1 °F 73% 30.05 in 10.0 mi SSW 4.6 mph - N/A   Mostly Cloudy
6:53 PM 66.9 °F 60.1 °F 79% 30.06 in 10.0 mi SSE 3.5 mph - N/A   Mostly Cloudy
7:53 PM 64.0 °F 60.1 °F 87% 30.07 in 10.0 mi South 5.8 mph - N/A   Mostly Cloudy
8:53 PM 63.0 °F 59.0 °F 87% 30.09 in 10.0 mi South 5.8 mph - N/A   Overcast
9:53 PM 63.0 °F 59.0 °F 87% 30.10 in 10.0 mi SW 8.1 mph - N/A   Overcast
10:53 PM 64.0 °F 57.9 °F 80% 30.12 in 10.0 mi WSW 11.5 mph - N/A   Overcast
11:53 PM 63.0 °F 55.0 °F 75% 30.13 in 10.0 mi West 9.2 mph - N/A   Mostly Cloudy